Rijeka, Croatia

2:07 PM CEST on June 19, 2018 (GMT +0200)
Rijeka

Weather History for LDRI - June, 2018

Change the Weather History Date:

Thursday, June 14, 2018

  Actual Average Record
Temperature  
Mean Temperature 70 °F -  
Max Temperature 73 °F - - ()
Min Temperature 66 °F - - ()
Cooling Degree Days 4    
Growing Degree Days 20 (Base 50)    
Moisture  
Dew Point 52 °F    
Average Humidity 52    
Maximum Humidity 100    
Minimum Humidity 43    
Precipitation  
Precipitation 0.00 in - - ()
Sea Level Pressure  
Sea Level Pressure 29.75 in    
Wind  
Wind Speed 15 mph ()    
Max Wind Speed 30 mph    
Max Gust Speed 59 mph    
Visibility 6.2 miles    
Events      
T = Trace of Precipitation, MM = Missing Value Source: Averaged Metar Reports

Daily Weather History Graph

Daily Weather History Graph

Search for Another Location

Airport or City:

Astronomy

Jun. 14, 2018 Rise Set
Actual Time 5:13 AM CEST 8:50 PM CEST
Civil Twilight 4:35 AM CEST 9:28 PM CEST
Nautical Twilight 3:46 AM CEST 10:18 PM CEST
Astronomical Twilight 2:39 AM CEST 11:24 PM CEST
Moon 5:57 AM CEST (6/14) 9:30 PM CEST (6/14)
Length of Visible Light 16h 52m
Length of Day
15h 37m
New Moon, 1% of the Moon is Illuminated
Jun 14
New Moon
Jun 20
First Quarter
Jun 28
Full
Jul 6
Last Quarter
Jul 13
New

Hourly Weather History & Observations

Time (CEST) Temp. Dew Point Humidity Pressure Visibility Wind Dir Wind Speed Gust Speed Precip Events Conditions
12:00 AM 68.0 °F 57.2 °F 68% 29.71 in 6.2 mi Variable 4.6 mph - N/A   Partly Cloudy
12:30 AM 69.8 °F 57.2 °F 64% 29.71 in 6.2 mi Variable 5.8 mph - N/A   Partly Cloudy
1:00 AM 69.8 °F 55.4 °F 60% 29.71 in 6.2 mi Variable 9.2 mph - N/A   Partly Cloudy
1:30 AM 69.8 °F 55.4 °F 60% 29.71 in 6.2 mi Variable 9.2 mph - N/A   Partly Cloudy
2:00 AM 69.8 °F 55.4 °F 60% 29.71 in 6.2 mi Variable 8.1 mph - N/A   Partly Cloudy
2:30 AM 69.8 °F 55.4 °F 60% 29.71 in 6.2 mi Variable 10.4 mph - N/A   Partly Cloudy
3:00 AM 69.8 °F 55.4 °F 60% 29.71 in 6.2 mi Variable 6.9 mph - N/A   Partly Cloudy
3:30 AM 69.8 °F 55.4 °F 60% 29.71 in 6.2 mi Variable 6.9 mph - N/A   Partly Cloudy
4:00 AM 69.8 °F 55.4 °F 60% 29.71 in 6.2 mi Variable 6.9 mph - N/A   Partly Cloudy
4:30 AM 69.8 °F 55.4 °F 60% 29.71 in 6.2 mi Variable 13.8 mph - N/A   Partly Cloudy
5:00 AM 69.8 °F 53.6 °F 56% 29.68 in 6.2 mi Variable 23.0 mph - N/A   Partly Cloudy
5:30 AM 69.8 °F 53.6 °F 56% 29.71 in 6.2 mi NE 26.5 mph - N/A   Scattered Clouds
6:00 AM 69.8 °F 53.6 °F 56% 29.71 in 6.2 mi NE 25.3 mph - N/A   Scattered Clouds
6:30 AM 69.8 °F 51.8 °F 53% 29.71 in 6.2 mi NE 25.3 mph - N/A   Scattered Clouds
7:00 AM 69.8 °F 51.8 °F 53% 29.71 in 6.2 mi ENE 27.6 mph - N/A   Partly Cloudy
7:30 AM 69.8 °F 51.8 °F 53% 29.71 in 6.2 mi NE 24.2 mph 44.9 mph N/A   Partly Cloudy
8:00 AM 71.6 °F 51.8 °F 50% 29.74 in 6.2 mi NE 27.6 mph 46.0 mph N/A   Partly Cloudy
8:30 AM 71.6 °F 51.8 °F 50% 29.74 in 6.2 mi NE 26.5 mph 44.9 mph N/A   Partly Cloudy
9:00 AM 71.6 °F 51.8 °F 50% 29.74 in 6.2 mi NE 23.0 mph 40.3 mph N/A   Partly Cloudy
9:30 AM 71.6 °F 50.0 °F 46% 29.74 in 6.2 mi NE 29.9 mph 44.9 mph N/A   Partly Cloudy
10:00 AM 71.6 °F 50.0 °F 46% 29.74 in 6.2 mi NE 29.9 mph 47.2 mph N/A   Partly Cloudy
10:30 AM 71.6 °F 50.0 °F 46% 29.74 in 6.2 mi NE 28.8 mph 52.9 mph N/A   Partly Cloudy
11:30 AM 73.4 °F 50.0 °F 44% 29.74 in 6.2 mi NE 27.6 mph 51.8 mph N/A   Partly Cloudy
12:00 PM 73.4 °F 50.0 °F 44% 29.74 in 6.2 mi NE 28.8 mph 49.5 mph N/A   Partly Cloudy
12:30 PM 73.4 °F 50.0 °F 44% 29.74 in 6.2 mi NE 24.2 mph 43.7 mph N/A   Partly Cloudy
1:00 PM 73.4 °F 50.0 °F 44% 29.77 in 6.2 mi NE 26.5 mph 41.4 mph N/A   Partly Cloudy
1:30 PM 73.4 °F 50.0 °F 44% 29.77 in 6.2 mi NE 25.3 mph 44.9 mph N/A   Partly Cloudy
2:00 PM 73.4 °F 50.0 °F 44% 29.77 in 6.2 mi NE 27.6 mph 46.0 mph N/A   Partly Cloudy
2:30 PM 71.6 °F 50.0 °F 46% 29.77 in 6.2 mi NE 24.2 mph 47.2 mph N/A   Partly Cloudy
3:00 PM 73.4 °F 50.0 °F 44% 29.77 in 6.2 mi NE 24.2 mph 42.6 mph N/A   Partly Cloudy
3:30 PM 73.4 °F 50.0 °F 44% 29.77 in 6.2 mi NE 24.2 mph 43.7 mph N/A   Partly Cloudy
4:00 PM 73.4 °F 50.0 °F 44% 29.77 in 6.2 mi NE 11.5 mph 35.7 mph N/A   Partly Cloudy
4:30 PM 73.4 °F 50.0 °F 44% 29.77 in 6.2 mi NE 21.9 mph 38.0 mph N/A   Partly Cloudy
5:00 PM 71.6 °F 50.0 °F 46% 29.77 in 6.2 mi NE 20.7 mph 41.4 mph N/A   Partly Cloudy
5:30 PM 71.6 °F 50.0 °F 46% 29.77 in 6.2 mi NE 19.6 mph 35.7 mph N/A   Partly Cloudy
6:00 PM 71.6 °F 50.0 °F 46% 29.77 in 6.2 mi NE 20.7 mph 44.9 mph N/A   Partly Cloudy
6:30 PM 71.6 °F 48.2 °F 43% 29.77 in 6.2 mi NE 25.3 mph 40.3 mph N/A   Partly Cloudy
7:00 PM 69.8 °F 48.2 °F 46% 29.77 in 6.2 mi NE 26.5 mph 58.7 mph N/A   Partly Cloudy
7:30 PM 69.8 °F 48.2 °F 46% 29.77 in 6.2 mi ENE 25.3 mph 48.3 mph N/A   Partly Cloudy
8:00 PM 68.0 °F 48.2 °F 49% 29.77 in 6.2 mi ENE 21.9 mph 38.0 mph N/A   Partly Cloudy
8:30 PM 68.0 °F 48.2 °F 49% 29.80 in 6.2 mi East 19.6 mph 46.0 mph N/A   Scattered Clouds
9:00 PM 68.0 °F 48.2 °F 49% 29.83 in 6.2 mi SE 6.9 mph - N/A   Scattered Clouds
9:30 PM 68.0 °F 48.2 °F 49% 29.83 in 6.2 mi ENE 10.4 mph - N/A   Scattered Clouds
10:00 PM 66.2 °F 66.2 °F 100% 29.86 in 6.2 mi North 8.1 mph - N/A   Scattered Clouds
10:30 PM 68.0 °F 48.2 °F 49% 29.83 in 6.2 mi NE 11.5 mph - N/A   Scattered Clouds
11:00 PM 68.0 °F 48.2 °F 49% 29.83 in 6.2 mi ENE 13.8 mph 27.6 mph N/A   Scattered Clouds